This demonstration page uses our WeatherBlox Daily Observations layout. Learn more.

38.89511, -77.03637

Hourly Observations for February 13, 2015

Temp ( °F °C ) Dew Point ( °F °C ) Humidity (%) Winds ( mph kmh ) Pressure ( in mb ) Visibility ( mi km ) Precip ( " mm )
12:52 am 00:52 Mostly Clear 19 -7 -2 -19 38 38 NNW 24 39 30.18 1022 10 16.09344 0 0
1:52 am 01:52 Mostly Clear 18 -8 -2 -19 41 41 NNW 18 30 30.21 1023 10 16.09344 0 0
2:52 am 02:52 Mostly Clear 18 -8 -2 -19 41 41 NW 20 31 30.21 1023 10 16.09344 0 0
3:52 am 03:52 Mostly Clear 16 -9 -4 -20 41 41 NW 20 31 30.24 1024 10 16.09344 0 0
4:52 am 04:52 Clear 16 -9 -4 -20 41 41 NNW 17 28 30.24 1024 10 16.09344 0 0
5:52 am 05:52 Mostly Clear 16 -9 -4 -20 41 41 NNW 21 33 30.27 1025 10 16.09344 0 0
6:52 am 06:52 Partly Cloudy 16 -9 -4 -20 41 41 NW 12 19 30.3 1026 10 16.09344 0 0
7:52 am 07:52 Partly Cloudy 16 -9 -4 -20 41 41 NW 17 28 30.33 1027 10 16.09344 0 0
8:52 am 08:52 Partly Cloudy 18 -8 -2 -19 41 41 NW 15 24 30.33 1027 10 16.09344 0 0
9:52 am 09:52 Mostly Sunny 19 -7 -2 -19 38 38 NNW 22 35 30.33 1027 10 16.09344 0 0
10:52 am 10:52 Mostly Sunny 21 -6 -2 -19 35 35 N 17 28 30.33 1027 10 16.09344 0 0
11:52 am 11:52 Mostly Sunny 25 -4 0 -18 33 33 N 21 33 30.3 1026 10 16.09344 0 0
12:52 pm 12:52 Mostly Sunny 27 -3 0 -18 31 31 NW 12 19 30.27 1025 10 16.09344 0 0
1:52 pm 13:52 Mostly Sunny 28 -2 0 -18 29 29 W 10 17 30.24 1024 10 16.09344 0 0
2:52 pm 14:52 Mostly Sunny 28 -2 -2 -19 26 26 NW 13 20 30.21 1023 10 16.09344 0 0
3:52 pm 15:52 Partly Cloudy 30 -1 -2 -19 24 24 W 8 13 30.21 1023 10 16.09344 0 0
4:52 pm 16:52 Partly Cloudy 28 -2 -2 -19 26 26 W 8 13 30.21 1023 10 16.09344 0 0
5:52 pm 17:52 Mostly Clear 28 -2 -2 -19 26 26 NW 8 13 30.21 1023 10 16.09344 0 0
6:52 pm 18:52 Clear 27 -3 -2 -19 28 28 SW 3 6 30.21 1023 10 16.09344 0 0
7:52 pm 19:52 Clear 27 -3 -2 -19 28 28 S 3 6 30.21 1023 10 16.09344 0 0
8:52 pm 20:52 Clear 27 -3 1 -17 33 33 S 3 6 30.21 1023 10 16.09344 0 0
9:52 pm 21:52 Clear 25 -4 7 -14 46 46 SSW 7 11 30.21 1023 10 16.09344 0 0
10:23 pm 22:23 Mostly Clear 25 -4 3 -16 39 39 S 5 7 30.18 1022 10 16.09344 0 0
10:52 pm 22:52 Mostly Cloudy 25 -4 7 -14 46 46 SSE 6 9 30.18 1022 10 16.09344 0 0
11:52 pm 23:52 Mostly Cloudy 25 -4 3 -16 39 39 SSE 6 9 30.15 1021 10 16.09344 0 0

Powered by AerisWeather